Location: Dittelbrunn
(50.0738°N, 10.2196°E)
Time: 02:42:53
(UTC+00:00)

Meteor 1-24 Rocket - Pass Details

Date: 18 September 2020
Orbit: 790 x 927 km, 81.2° (Epoch: 18 October)

Event Time Altitude Azimuth Distance (km) Brightness Sun altitude
Rises 19:04:55 0° 352° (N) 3,339 7.2 -16.3°
Reaches altitude 10° 19:07:27 10° 1° (N) 2,420 6.4 -16.7°
Maximum altitude 19:12:33 38° 69° (ENE) 1,256 4.3 -17.5°
Enters shadow 19:14:22 30° 108° (ESE) 1,469 4.4 -17.7°
